Regional Weather Roundup
Issued by NWS

Home | Current Version | Previous Version | Graphics & Text | Print | Product List | Glossary On
Versions: 1 2 3 4 5 6 7 8 9 10 11 12 13 14 15 16 17 18 19 20 21 22 23 24 25 26 27 28 29 30 31 32 33 34 35 36 37 38 39 40 41 42 43 44 45 46 47 48 49 50
000
ASUS45 KCYS 210410
RWRWY

WYOMING REGIONAL WEATHER ROUNDUP
NATIONAL WEATHER SERVICE CHEYENNE WY
1000 PM MDT WED AUG 20 2014

NOTE:  "FAIR" INDICATES FEW OR NO CLOUDS BELOW 12,000 FEET
WITH NO SIGNIFICANT WEATHER AND/OR OBSTRUCTIONS TO VISIBILITY.

WYZ001-210500-
YELLOWSTONE NATIONAL PARK

CITY           SKY/WX    TMP DP  RH WIND       PRES   REMARKS
LK YELLOWSTONE   N/A     46  44  93 CALM      30.19F
W YELLOWSTONE  NOT AVBL

$$
WYZ002>013-054>058-071-098>099-210500-
NORTHERN WYOMING

CITY           SKY/WX    TMP DP  RH WIND       PRES   REMARKS
JACKSON        CLOUDY    52  50  93 W5        30.15F
CODY           CLOUDY    63  46  55 SW7       30.01S
GREYBULL       MOCLDY    71  46  40 W28G38    29.91R
WORLAND        MOCLDY    68  47  46 S10       29.90R
SHERIDAN       PTCLDY    59  49  69 S6        29.89R
BUFFALO        PTCLDY    63  46  54 W5        29.96R
GILLETTE       PTCLDY    60  46  59 CALM      29.91R
HULETT         FAIR      66  50  55 MISG      29.92
NEWCASTLE      FAIR      68  45  42 MISG      29.89

$$
WYZ014>020-022>026-101>103-210500-
CENTRAL WYOMING

CITY           SKY/WX    TMP DP  RH WIND       PRES   REMARKS
BIG PINEY      CLOUDY    55  43  63 NW3       30.18R
PINEDALE       CLOUDY    50  43  76 W6        30.18R
DUBOIS         CLOUDY    48  43  81 NW16      30.15S
LANDER         PTCLDY    64  42  44 W7        29.99R
RIVERTON       PTCLDY    66  40  38 NW15      30.00R
CASPER         MOCLDY    66  44  45 SW12      29.98R
DOUGLAS        MOCLDY    69  46  43 N7        29.96R

$$
WYZ021-027>030-104>119-210500-
SOUTHERN WYOMING

CITY           SKY/WX    TMP DP  RH WIND       PRES   REMARKS
EVANSTON       PTCLDY    56  43  61 N23G36    30.17R
KEMMERER       LGT RAIN  55  43  62 NW13G24   30.20R
FORT BRIDGER   FAIR      61  45  56 W9        30.17R
ROCK SPRINGS   MOCLDY    57  45  64 NW6       30.14R
DIXON          MOCLDY    55  52  89 SE10      30.18S THUNDER
RAWLINS        CLOUDY    59  48  67 S6        30.13R
SARATOGA       LGT RAIN  54  50  87 MISG      30.19S
LARAMIE        MOCLDY    55  45  68 W7        30.15R
CHEYENNE       CLOUDY    67  47  48 CALM      30.05R
TORRINGTON     PTCLDY    71  49  45 NW7       29.89R
PINE BLUFFS    MOCLDY    64  54  68 S7        30.01R

$$



USA.gov is the U.S. government's official web portal to all federal, state and local government web resources and services.